Wind_Speed
9 8 10 9 8 11 11 10 10 11 11 11 11 11 11 10 12 14 18 24 16 11 9 6 3 9 14 11 7 8 14 23 21 24 16 16 19 9 6 6 5 2 3 4 4 12 12
8 7 8 10 7 10 10 10 9 9 11 12 12 11 11 9 9 10 14 20 17 12 7 3 3 9 10 4 12 12 13 17 17 22 8 11 15 11 8 9 4 4 5 4 9 11 7
7 7 8 9 8 9 9 9 9 9 10 12 11 10 11 9 9 10 11 19 16 11 4 1 4 8 6 8 5 11 4 14 16 24 20 3 7 8 9 6 7 9 4 3 10 5 4
6 7 7 8 8 7 9 8 8 8 10 10 9 9 11 10 10 12 12 16 17 8 2 1 3 4 2 3 6 5 5 8 15 24 25 5 2 6 7 14 5 4 5 5 4 6 2
6 7 7 7 8 8 8 8 8 7 9 7 4 6 9 12 12 14 17 11 10 2 3 2 2 2 2 4 7 6 3 5 14 26 22 8 1 3 9 6 5 6 3 4 2 6 2
7 7 8 7 8 9 8 8 8 8 8 7 5 5 6 10 12 15 15 7 5 5 4 3 2 2 6 4 7 4 4 6 12 27 11 8 0 2 4 4 10 5 6 3 4 0 6
7 7 8 8 8 9 9 9 9 9 9 8 8 11 12 13 15 14 13 6 2 2 15 7 5 2 3 4 5 3 6 5 13 18 1 9 2 5 8 5 7 7 6 7 2 1 4
8 8 8 9 9 9 10 11 11 11 10 11 10 11 15 17 15 11 6 4 3 5 4 8 8 10 6 6 5 5 6 4 3 9 7 5 3 3 7 7 8 5 7 3 3 1 2
9 9 9 10 10 10 11 11 13 13 11 12 12 11 12 14 14 7 3 1 4 4 3 6 8 7 4 7 5 3 6 3 5 6 7 5 1 5 4 3 7 3 8 5 6 3 3
9 10 10 11 11 10 11 11 12 14 12 11 10 10 12 11 7 2 3 2 4 3 3 7 3 2 3 3 4 4 5 4 3 13 9 7 4 4 4 4 4 4 5 5 11 5 3
10 10 10 11 12 10 10 11 11 13 13 10 8 7 10 9 5 3 2 3 3 1 4 8 3 1 1 3 3 3 4 3 1 7 4 2 3 3 2 4 3 3 6 5 4 5 5
9 11 10 11 13 11 9 10 10 11 12 10 7 7 8 6 2 1 2 1 4 5 2 4 5 2 2 4 1 5 3 2 2 7 0 2 2 3 1 2 2 7 8 8 5 4 2
8 10 10 11 13 14 11 9 8 9 9 9 5 6 6 4 2 1 0 4 4 5 2 4 3 3 5 3 4 2 3 4 3 5 3 3 3 4 4 6 4 4 7 3 4 3 5
7 8 9 11 12 14 15 12 8 8 7 5 3 3 5 5 3 1 3 4 7 1 0 1 2 4 4 2 5 2 5 2 3 5 4 4 3 4 6 1 6 2 5 5 6 4 3
6 7 7 9 11 13 15 14 10 7 5 3 3 2 3 5 3 0 1 5 6 5 3 6 2 3 0 2 8 3 3 2 2 2 5 5 4 3 1 2 2 4 1 3 7 3 4
6 6 7 9 11 13 15 15 10 7 4 2 3 2 5 4 2 0 3 2 2 2 2 1 2 1 2 1 2 4 2 3 4 3 2 4 5 2 3 0 5 2 6 4 3 4 3
9 6 6 8 9 12 14 15 11 6 6 2 2 2 4 2 2 1 3 3 1 2 1 4 2 1 0 1 2 2 1 2 2 2 0 3 3 4 2 3 3 2 2 5 4 3 4
11 8 6 6 8 9 12 14 13 8 7 1 1 1 2 2 1 2 2 2 1 1 2 2 2 1 0 3 3 3 3 1 2 1 2 1 4 3 1 0 1 1 2 4 4 3 2
13 11 8 6 7 8 10 12 13 11 6 1 2 1 1 1 3 1 2 1 1 2 1 2 1 2 1 2 2 2 2 1 5 2 4 3 2 3 4 2 2 3 3 3 4 2 4
12 12 10 7 6 7 8 10 12 12 6 1 2 1 1 1 2 5 3 1 1 1 2 3 1 2 2 2 4 3 0 2 2 2 2 3 3 4 6 3 3 3 3 4 4 3 4
13 12 11 9 6 6 6 9 10 11 5 1 1 1 1 1 1 2 3 4 2 1 1 2 3 4 1 2 1 3 1 1 2 3 3 3 2 2 1 1 1 2 4 6 7 3 5
16 12 11 11 7 5 4 6 9 10 4 1 1 2 2 1 1 2 2 3 5 2 0 0 3 4 2 2 1 5 4 2 2 3 2 4 2 1 0 2 3 3 5 7 5 3 6
17 16 11 12 9 6 5 4 6 7 5 1 1 2 1 2 1 3 2 2 3 5 2 2 3 4 4 1 2 6 2 4 4 4 2 2 3 3 2 4 5 7 8 10 6 6 7
23 18 14 11 10 8 5 4 4 4 4 2 1 2 2 2 1 2 1 1 2 0 4 1 3 3 4 8 8 6 12 13 12 8 3 4 4 2 2 2 1 5 2 3 6 4 9
18 19 17 12 11 10 6 5 3 3 2 2 3 1 1 1 1 1 2 3 4 3 2 2 2 3 9 4 3 3 4 3 4 5 6 3 4 3 3 3 6 1 4 6 6 7 13
18 20 18 14 12 12 9 6 4 3 2 1 2 2 1 5 3 2 2 3 3 1 3 2 4 6 3 3 2 3 4 3 2 1 3 4 5 3 2 2 5 3 2 5 3 5 4
19 17 16 17 14 12 11 8 6 4 3 2 1 1 1 2 3 3 2 3 4 3 2 1 3 3 2 2 1 3 3 3 2 5 4 2 2 4 2 2 8 5 4 7 2 5 5
21 19 16 18 17 14 12 10 7 5 4 3 3 1 1 1 4 4 4 3 3 4 4 6 4 1 2 2 2 2 3 4 1 4 5 6 6 4 2 2 6 6 5 6 3 1 8
21 18 17 17 20 17 13 10 8 7 6 5 4 3 2 2 2 4 4 5 6 4 3 9 1 4 6 3 2 2 2 1 3 2 1 3 6 4 8 6 4 13 4 7 3 6 9
Wind_Direction
343 354 356 347 348 340 348 355 347 353 346 354 352 338 333 337 354 353 357 5 359 350 334 329 231 188 187 196 244 250 228 221 226 209 177 184 182 153 157 176 157 177 148 64 71 143 120
331 345 354 350 344 345 347 357 350 353 347 349 347 341 332 343 345 351 8 2 4 348 333 341 142 176 184 215 262 244 221 211 212 208 212 166 184 174 147 167 177 149 123 100 69 97 88
338 343 351 351 347 342 348 357 350 353 340 353 346 338 339 340 336 337 341 351 357 354 331 322 152 164 202 253 246 271 155 197 192 182 206 125 160 175 149 123 138 138 96 63 26 26 95
329 338 338 352 345 345 348 353 353 349 340 356 3 7 5 353 337 335 331 339 345 359 45 44 157 156 297 294 271 30 120 186 166 155 177 63 85 163 137 128 67 69 50 113 336 353 77
321 326 326 345 349 343 348 350 350 348 334 349 3 17 18 10 356 342 338 338 3 332 126 126 150 210 49 341 6 23 107 140 130 162 180 328 355 177 125 104 52 18 142 91 83 11 89
310 321 322 323 338 337 344 343 343 346 334 323 295 310 346 357 345 338 334 329 44 28 151 83 42 11 23 358 12 36 73 124 123 137 219 281 125 90 67 105 181 158 107 57 124 39 38
304 310 314 321 314 318 328 331 328 327 331 314 290 281 294 312 330 334 342 330 327 30 64 40 6 5 338 24 23 46 96 121 125 141 56 318 341 180 162 150 149 125 117 110 355 314 101
319 308 311 314 316 320 321 324 320 312 310 308 305 300 299 304 310 319 342 353 84 123 60 43 34 38 72 27 37 98 101 102 122 134 97 326 250 225 120 118 120 106 118 86 49 26 68
327 321 312 307 311 313 315 322 320 317 315 301 299 302 306 313 313 300 307 59 135 132 70 9 16 355 14 32 41 2 23 53 122 123 145 274 187 121 107 112 109 111 143 173 149 168 58
338 331 323 314 312 313 315 322 325 324 323 316 301 305 309 321 309 293 294 300 224 253 68 8 353 16 24 22 54 36 53 38 39 133 141 261 321 132 108 115 112 125 150 129 130 99 170
333 335 336 333 319 318 320 319 326 324 327 325 320 319 317 322 296 282 285 321 182 219 51 331 329 68 131 27 137 16 41 25 298 120 117 285 11 89 107 175 163 128 120 118 98 91 95
332 335 337 342 332 326 322 317 322 323 326 323 331 341 336 328 323 285 336 71 136 44 327 342 348 18 203 183 73 101 16 338 350 130 297 18 335 57 22 72 79 154 88 52 55 80 40
331 343 346 349 346 344 340 325 319 323 328 317 337 357 0 350 21 318 71 146 42 71 320 349 354 10 82 92 110 180 172 157 155 109 59 25 2 343 28 78 48 87 83 28 21 18 207
321 343 353 357 356 353 349 340 327 324 326 302 309 10 17 2 349 123 151 56 67 308 250 12 286 337 62 120 46 159 155 72 274 79 89 114 349 7 338 63 168 134 124 149 165 172 211
299 329 346 356 360 358 354 347 335 331 330 299 266 49 15 6 4 133 212 52 180 208 197 174 254 303 10 144 133 74 345 41 125 127 128 132 348 307 311 336 75 194 72 161 110 36 74
273 301 330 347 358 358 357 357 350 353 354 323 252 194 25 26 44 54 76 150 182 197 144 138 265 215 66 64 144 126 160 339 351 36 67 178 83 352 303 17 39 107 150 72 8 125 202
264 273 304 330 348 358 358 0 356 351 356 341 202 169 17 62 64 43 104 243 200 202 180 183 262 355 327 67 86 63 347 37 39 289 171 140 97 293 29 28 175 50 57 54 114 116 152
262 254 274 308 333 353 358 0 358 342 348 302 222 50 31 104 47 38 103 201 311 265 215 271 255 139 153 32 47 104 119 3 353 254 129 339 114 111 161 216 118 96 136 137 116 216 66
259 253 256 281 314 342 353 358 359 353 343 353 145 120 97 92 112 334 277 313 357 326 305 303 10 35 10 86 73 31 125 26 24 59 162 189 61 84 4 14 9 223 198 126 108 86 192
243 260 251 262 289 322 345 353 358 355 345 99 159 42 150 175 104 137 162 201 240 271 295 323 290 108 81 59 22 143 177 17 21 125 120 136 96 144 176 197 136 188 188 162 137 118 169
233 253 258 251 265 294 333 344 356 356 347 136 109 220 171 240 320 130 139 167 168 230 285 10 20 25 345 122 106 124 243 94 355 345 46 82 109 109 131 66 185 216 200 186 192 188 164
229 234 257 253 253 273 308 331 357 355 349 7 193 159 146 108 285 135 2 195 174 194 317 310 117 18 354 117 237 198 138 222 177 16 68 5 129 133 272 12 32 274 234 211 216 214 261
234 225 236 264 243 253 276 317 350 357 357 341 124 141 169 336 44 97 224 180 186 133 49 72 143 108 71 25 55 86 120 110 104 137 115 83 117 71 270 348 336 297 220 189 188 206 155
233 226 218 246 260 238 250 281 316 359 16 35 40 163 159 238 165 220 189 146 146 169 160 346 84 114 144 129 94 80 62 69 68 44 71 122 102 78 204 6 353 239 156 197 198 221 211
228 223 218 220 252 250 233 253 280 319 359 27 35 143 176 156 200 334 125 118 114 63 65 113 64 118 148 142 59 43 352 19 19 29 18 49 120 93 130 200 285 240 196 156 167 269 204
229 226 215 213 230 258 232 234 250 273 302 306 9 48 177 131 243 156 155 179 163 140 3 36 112 136 145 80 91 156 206 219 235 344 37 61 72 116 139 200 231 246 200 182 144 285 204
226 228 221 209 221 237 254 223 233 243 261 281 290 8 162 149 171 178 174 183 161 132 128 172 157 153 137 89 132 175 237 167 187 181 173 83 30 165 157 256 287 239 164 151 149 253 175
214 220 234 214 214 226 243 232 227 234 241 250 248 296 333 208 189 204 202 190 176 182 155 156 102 226 68 131 166 217 179 221 137 180 179 169 150 193 115 208 294 165 111 169 232 183 180
224 223 223 230 211 218 228 248 222 232 232 238 235 249 274 254 194 189 205 229 229 220 208 177 237 172 183 106 191 134 205 114 174 262 74 223 187 182 187 214 242 204 216 233 225 185 170
Height
1532 1531 1530 1527 1526 1523 1520 1518 1517 1514 1512 1509 1507 1504 1501 1499 1497 1494 1490 1485 1480 1477 1475 1472 1470 1470 1472 1475 1474 1473 1474 1475 1478 1482 1483 1485 1489 1490 1492 1495 1497 1498 1496 1496 1496 1496 1497
1531 1529 1528 1527 1525 1522 1520 1518 1516 1514 1511 1509 1506 1504 1501 1498 1495 1492 1490 1486 1481 1478 1476 1473 1472 1472 1474 1475 1471 1472 1471 1476 1477 1478 1477 1484 1488 1487 1489 1493 1496 1496 1496 1497 1499 1498 1499
1530 1528 1527 1525 1523 1521 1519 1517 1515 1512 1510 1508 1506 1503 1500 1497 1495 1493 1490 1486 1482 1479 1478 1475 1474 1474 1475 1474 1470 1470 1468 1473 1474 1473 1478 1485 1486 1486 1486 1493 1495 1497 1499 1498 1500 1500 1503
1529 1527 1526 1524 1522 1520 1518 1516 1513 1512 1510 1507 1505 1503 1500 1496 1494 1491 1489 1486 1483 1480 1479 1478 1476 1475 1475 1472 1470 1468 1470 1472 1474 1475 1480 1485 1485 1485 1484 1491 1495 1499 1502 1505 1503 1502 1504
1528 1526 1525 1523 1521 1520 1518 1515 1513 1511 1509 1506 1504 1502 1499 1497 1493 1490 1488 1486 1483 1481 1480 1479 1479 1477 1476 1474 1472 1471 1471 1475 1475 1478 1486 1483 1484 1484 1484 1493 1508 1508 1517 1509 1506 1503 1503
1526 1525 1523 1522 1520 1518 1516 1514 1512 1509 1507 1505 1503 1502 1499 1497 1494 1491 1488 1485 1484 1482 1481 1480 1479 1481 1479 1479 1476 1474 1473 1473 1478 1482 1487 1487 1484 1486 1488 1495 1503 1511 1516 1511 1511 1509 1507
1524 1523 1522 1521 1519 1517 1515 1513 1510 1508 1506 1504 1501 1499 1498 1496 1494 1491 1489 1486 1488 1487 1482 1485 1486 1483 1481 1481 1479 1478 1477 1476 1474 1483 1491 1485 1487 1491 1487 1490 1495 1500 1507 1512 1512 1510 1510
1523 1521 1520 1519 1518 1515 1513 1511 1509 1506 1504 1502 1500 1497 1495 1493 1492 1491 1490 1488 1488 1489 1487 1485 1484 1482 1481 1481 1481 1479 1480 1481 1482 1486 1494 1497 1491 1487 1485 1489 1494 1500 1510 1515 1514 1512 1512
1521 1520 1518 1517 1515 1513 1511 1509 1506 1504 1501 1499 1497 1495 1493 1492 1490 1490 1489 1490 1489 1487 1488 1489 1487 1484 1484 1484 1484 1482 1482 1482 1485 1489 1497 1500 1487 1487 1487 1491 1495 1502 1507 1515 1516 1514 1514
1520 1519 1517 1515 1513 1511 1509 1506 1504 1502 1499 1496 1494 1493 1491 1490 1489 1488 1488 1489 1488 1488 1496 1493 1488 1488 1487 1485 1486 1486 1485 1486 1485 1491 1499 1496 1486 1487 1490 1493 1496 1501 1502 1507 1512 1519 1534
1519 1517 1515 1513 1511 1509 1507 1504 1502 1500 1497 1494 1492 1491 1489 1487 1487 1486 1488 1487 1487 1489 1514 1492 1488 1488 1487 1489 1490 1489 1489 1488 1488 1490 1496 1497 1490 1490 1492 1494 1494 1499 1501 1509 1513 1522 1528
1518 1516 1514 1512 1509 1507 1504 1502 1499 1498 1496 1493 1491 1489 1488 1487 1486 1486 1486 1487 1489 1500 1506 1492 1489 1487 1487 1488 1489 1491 1492 1492 1491 1495 1493 1495 1493 1493 1495 1495 1495 1500 1505 1516 1523 1528 1547
1516 1515 1513 1511 1509 1505 1502 1500 1498 1495 1494 1492 1490 1489 1486 1486 1486 1486 1486 1487 1497 1504 1497 1495 1489 1488 1487 1488 1490 1491 1492 1491 1492 1500 1503 1499 1497 1497 1496 1497 1498 1502 1512 1557 1549 1558 1547
1515 1514 1512 1511 1508 1505 1501 1499 1496 1494 1492 1491 1490 1488 1487 1486 1486 1485 1486 1488 1501 1495 1494 1494 1490 1486 1488 1489 1491 1492 1491 1494 1486 1490 1509 1516 1521 1502 1499 1500 1501 1506 1510 1537 1541 1551 1547
1514 1513 1511 1509 1507 1504 1501 1497 1495 1492 1490 1490 1490 1489 1487 1486 1485 1486 1488 1498 1502 1496 1491 1492 1491 1489 1485 1484 1491 1490 1487 1487 1487 1487 1498 1507 1514 1502 1500 1499 1500 1503 1515 1512 1531 1540 1543
1511 1511 1510 1509 1506 1504 1501 1496 1494 1492 1489 1489 1489 1488 1487 1486 1486 1486 1488 1494 1491 1489 1490 1491 1492 1486 1487 1484 1484 1486 1488 1489 1485 1486 1487 1495 1509 1502 1500 1499 1500 1500 1507 1518 1530 1533 1523
1509 1509 1508 1507 1505 1503 1500 1497 1493 1491 1489 1488 1489 1488 1488 1486 1487 1487 1498 1496 1487 1487 1489 1490 1488 1487 1485 1486 1485 1489 1492 1492 1491 1490 1490 1492 1499 1509 1501 1505 1505 1507 1509 1515 1521 1528 1530
1506 1506 1506 1505 1504 1502 1499 1497 1493 1491 1489 1488 1488 1489 1487 1487 1489 1490 1496 1489 1487 1487 1488 1488 1487 1485 1486 1486 1489 1490 1492 1492 1492 1492 1492 1493 1501 1514 1505 1505 1505 1505 1505 1510 1521 1516 1530
1503 1503 1503 1503 1503 1501 1499 1496 1493 1490 1488 1487 1487 1487 1487 1487 1496 1496 1490 1489 1488 1487 1487 1486 1486 1485 1485 1487 1491 1491 1491 1491 1490 1492 1493 1493 1503 1521 1509 1509 1506 1506 1506 1508 1515 1521 1521
1500 1500 1500 1501 1501 1500 1498 1495 1492 1489 1487 1487 1486 1490 1487 1487 1486 1487 1489 1489 1489 1487 1487 1486 1486 1485 1486 1488 1490 1493 1492 1492 1491 1492 1492 1491 1502 1505 1514 1503 1505 1505 1505 1507 1509 1529 1519
1496 1497 1497 1498 1498 1498 1496 1495 1492 1489 1487 1487 1485 1486 1486 1490 1487 1486 1487 1488 1489 1489 1487 1486 1486 1488 1487 1490 1491 1494 1493 1494 1493 1491 1490 1491 1500 1505 1502 1502 1502 1501 1502 1507 1508 1505 1507
1492 1494 1494 1494 1496 1496 1495 1494 1491 1489 1487 1486 1485 1485 1486 1486 1486 1486 1488 1487 1488 1489 1489 1488 1489 1490 1489 1489 1490 1493 1492 1493 1491 1493 1494 1496 1503 1504 1509 1503 1504 1502 1501 1504 1506 1502 1505
1488 1490 1492 1492 1492 1493 1493 1492 1491 1489 1487 1485 1484 1484 1485 1487 1487 1487 1487 1486 1486 1487 1490 1489 1489 1491 1493 1492 1491 1491 1491 1491 1491 1494 1497 1500 1505 1509 1502 1510 1504 1501 1496 1497 1497 1495 1495
1484 1486 1488 1489 1489 1491 1491 1491 1490 1488 1487 1486 1484 1484 1485 1488 1488 1486 1485 1486 1487 1487 1488 1489 1489 1490 1494 1493 1493 1493 1493 1494 1494 1496 1496 1502 1507 1515 1520 1510 1518 1483 1484 1485 1486 1486 1488
1479 1481 1483 1486 1487 1487 1489 1489 1489 1488 1486 1486 1484 1484 1483 1487 1487 1486 1486 1486 1488 1488 1489 1489 1490 1491 1492 1493 1498 1501 1503 1497 1499 1501 1500 1499 1506 1518 1520 1520 1497 1480 1483 1485 1485 1478 1475
1475 1476 1478 1481 1485 1485 1486 1487 1487 1487 1486 1485 1484 1483 1483 1483 1486 1485 1486 1487 1489 1490 1491 1490 1491 1492 1493 1496 1500 1500 1502 1500 1501 1501 1502 1502 1503 1509 1521 1503 1493 1476 1476 1478 1479 1485 1468
1470 1472 1474 1476 1481 1483 1484 1484 1485 1485 1485 1485 1484 1483 1483 1482 1483 1485 1486 1487 1486 1488 1491 1491 1491 1492 1493 1499 1500 1504 1504 1500 1500 1503 1506 1508 1510 1512 1516 1513 1493 1478 1477 1479 1483 1478 1469
1464 1468 1469 1472 1477 1480 1481 1481 1482 1483 1484 1484 1483 1482 1482 1482 1482 1483 1484 1485 1485 1486 1489 1489 1493 1493 1495 1498 1501 1501 1502 1501 1501 1499 1503 1503 1513 1515 1517 1511 1500 1476 1479 1481 1475 1470 1471
1459 1462 1466 1469 1473 1477 1478 1479 1480 1481 1482 1482 1482 1481 1481 1481 1482 1482 1482 1483 1484 1485 1486 1486 1487 1486 1488 1494 1499 1499 1497 1503 1500 1495 1497 1499 1492 1495 1497 1488 1473 1472 1472 1471 1472 1472 1473